Location: Aldenham
(51.6667°N, 0.3500°W)
Time: 18:21:07
(UTC+00:00)

Cosmos 1300 Rocket - Pass Details

Date: 18 November 2025
Orbit: 594 x 620 km, 82.5° (Epoch: 10 December)

Event Time Altitude Azimuth Distance (km) Brightness Sun altitude
Rises 17:27:12 0° 201° (SSW) 2,880 7.6 -12.2°
Reaches altitude 10° 17:29:28 10° 206° (SSW) 1,977 6.8 -12.5°
Maximum altitude 17:33:46 54° 285° (WNW) 750 4.3 -13.2°
Drops below altitude 10° 17:38:04 10° 3° (N) 1,978 6.0 -13.8°
Sets 17:40:20 0° 8° (N) 2,883 6.8 -14.1°
